CAPE
0 0 0 0 0 0 0 0 0 0 0 0 0 0 0 0 0 0 0 0 0 0 0 0 0 0 0 438 811 958 1139 1210 1287 1499 1599 1621 1677 1740 1745 1764 1803 1830 1789 1756 1725 1756 1737 1713 1785 1765 1714 1688 1441 1608 1501 1514 1569 1614 1672 1651 1716 1797 1744 1744 1580 1605 1531 1417 1471 1551 1468 1426 1505 1726 1811 1913 2234 2128 2122 2323 2523 2661 2735 3027 3177 3296
0 0 0 0 0 0 0 0 0 0 0 0 0 0 0 0 0 0 0 0 0 0 0 0 0 0 0 86 669 953 1053 1144 1146 1336 1526 1588 1566 1627 1698 1718 1766 1845 1799 1721 1723 1736 1700 1661 1711 1734 1686 1744 1660 1644 1584 1540 1565 1616 1715 1829 1861 1886 1965 1862 1794 1802 1740 1648 1536 1395 1463 1491 1631 1780 1819 1938 2205 2168 2275 2570 2718 2772 2799 3072 3167 3227
0 0 0 0 0 0 0 0 0 0 0 0 0 0 0 0 0 0 0 0 0 0 0 0 0 0 0 0 524 1010 1060 1109 1073 1154 1362 1507 1564 1580 1595 1703 1734 1720 1746 1678 1702 1698 1688 1712 1670 1693 1629 1684 1693 1639 1611 1590 1724 1777 1803 1863 2096 2050 1894 1948 1980 2039 1942 1871 1842 1744 1768 1754 1822 1973 2052 2086 2182 2320 2425 2596 2721 2756 2916 3086 3146 3262
0 0 0 0 0 0 0 0 0 0 0 0 0 0 0 0 0 0 0 0 0 0 0 0 0 0 0 1 190 953 997 1157 1140 1125 1291 1429 1541 1527 1523 1608 1677 1629 1706 1673 1700 1671 1662 1692 1737 1672 1685 1769 1752 1811 1778 1793 1840 1835 1886 1976 2010 2220 2113 2155 2084 1913 2035 2046 2023 2007 2189 2135 2206 2319 2334 2471 2448 2516 2642 2597 2778 2824 2940 3077 3068 3156
0 0 0 0 0 0 0 0 0 0 0 0 0 0 0 0 0 0 0 0 0 0 0 0 0 0 0 0 232 746 962 1105 1174 1120 1201 1327 1405 1448 1481 1484 1552 1596 1672 1659 1628 1626 1641 1708 1745 1821 1824 1730 1830 1807 1843 1838 1882 1862 1968 2096 2079 2145 2279 2352 2212 2024 2022 2068 2074 1965 1838 2061 2199 2197 2352 2404 2298 2449 2699 2645 2770 2867 2908 2988 2982 3085
0 0 0 0 0 0 0 0 0 0 0 0 0 0 0 0 0 0 0 0 0 0 0 0 0 0 35 2 1 766 926 1072 1146 1120 1102 1182 1238 1321 1341 1419 1488 1507 1544 1634 1616 1625 1662 1742 1808 1856 1844 1894 1885 1923 1928 1988 1963 2018 2149 2254 2312 2376 2464 2318 2288 2131 2012 1916 1857 1792 1735 1647 1737 1922 2079 2064 2175 2308 2638 2512 2412 2783 2817 2829 2961 3106
0 0 0 0 0 0 0 0 0 0 0 0 0 0 0 0 0 0 0 0 0 0 0 0 0 0 0 0 2 413 872 1012 1118 1089 1110 1118 1214 1226 1296 1326 1393 1435 1435 1495 1548 1573 1555 1660 1774 1854 1930 1914 1958 2056 2130 2124 2062 2101 2208 2326 2370 2341 2401 2396 2305 2177 2139 2027 2085 1982 1878 1850 1953 2034 2135 2248 2282 2510 2767 2683 2750 2829 2824 2952 2967 3000
0 0 0 0 0 0 0 0 0 0 0 0 0 0 0 0 0 0 0 0 0 0 0 0 0 0 0 0 0 162 677 956 1118 1158 1128 1085 1210 1106 1193 1200 1326 1377 1380 1412 1476 1533 1566 1640 1703 1846 1958 1944 1866 2000 2075 2145 2149 2229 2287 2392 2396 2340 2336 2324 2220 2231 2154 2182 2157 2258 2222 2178 2204 2102 2432 2627 2636 2647 2839 2830 2812 2792 2926 3072 3049 3038
0 0 0 0 0 0 0 0 0 0 0 0 0 0 0 0 0 0 0 0 0 0 0 0 0 0 0 2 0 80 104 781 1054 1163 1189 1153 1161 1126 1130 1153 1224 1289 1373 1346 1343 1411 1483 1560 1615 1760 1847 1838 1837 1879 2035 2126 2210 2283 2359 2381 2394 2389 2371 2327 2269 2172 2107 2310 2369 2415 2306 2306 2278 2295 2444 2539 2400 2485 2544 2610 2831 3029 3060 3374 3416 3282
0 0 0 0 0 0 0 0 0 0 0 0 0 0 0 0 0 0 0 0 0 0 0 0 0 0 0 0 0 5 0 75 577 1064 1197 1246 1187 1123 1095 1110 1122 1217 1310 1308 1307 1348 1409 1452 1509 1544 1675 1771 1781 1811 1960 2087 2128 2219 2331 2349 2393 2402 2358 2354 2330 2304 2350 2262 2386 2351 2328 2296 2373 2307 2288 2213 2402 2462 2639 2568 2850 3075 3244 3229 3403 3430
0 0 0 0 0 0 0 0 0 0 0 0 0 0 0 0 0 0 0 0 0 0 0 0 0 0 0 0 0 0 0 17 74 749 1175 1265 1206 1128 1131 1101 1098 1136 1215 1267 1274 1271 1355 1404 1448 1430 1456 1632 1697 1724 1791 1934 1980 2052 2174 2291 2360 2398 2383 2337 2352 2379 2375 2270 2328 2304 2333 2319 2363 2406 2304 2361 2444 2520 2692 2596 2746 2980 3144 3222 3273 3273
0 0 0 0 0 0 0 0 0 0 0 0 0 0 0 0 0 0 0 0 0 0 0 0 0 0 0 0 0 0 4 0 2 16 509 958 1188 1186 1160 1076 1080 1132 1210 1198 1219 1242 1282 1356 1352 1357 1358 1374 1517 1622 1676 1714 1794 1937 2034 2154 2265 2334 2343 2229 2216 2318 2381 2356 2337 2303 2271 2259 2279 2355 2207 2283 2335 2555 2590 2589 2791 2971 3136 3287 3261 3418
0 0 0 0 0 0 0 0 0 0 0 0 0 0 0 0 0 0 0 0 0 0 0 0 0 0 0 0 0 0 0 0 2 0 43 456 919 1184 1126 1093 1075 1088 1129 1206 1245 1278 1276 1300 1325 1329 1399 1422 1412 1512 1553 1545 1589 1798 2008 2157 2246 2365 2328 2275 2186 2217 2292 2333 2375 2319 2280 2260 2320 2346 2310 2374 2385 2586 2588 2654 2756 3032 3042 3218 3281 3391
0 0 0 0 0 0 0 0 0 0 0 0 0 0 0 0 0 0 0 0 0 0 0 0 0 0 0 0 0 0 0 0 2 18 6 141 777 1134 1188 1140 1039 1085 1113 1140 1151 1224 1312 1391 1334 1314 1368 1475 1464 1347 1376 1435 1530 1694 1885 2129 2149 2289 2355 2294 2224 2218 2274 2372 2410 2423 2351 2258 2317 2258 2251 2334 2313 2511 2587 2747 2740 2762 2716 3108 3104 3197
0 0 0 0 0 0 0 0 0 0 0 0 0 0 0 0 0 0 0 0 0 0 0 0 0 0 0 0 0 0 0 0 0 0 38 73 393 1001 1042 1056 1034 1088 1109 1115 1125 1148 1218 1406 1401 1342 1385 1460 1411 1278 1168 1284 1464 1811 1921 2115 2245 2315 2448 2320 2266 2205 2231 2334 2378 2437 2420 2377 2299 2167 2176 2228 2212 2348 2531 2547 2592 2785 2718 2903 3012 3207
0 0 0 0 0 0 0 0 0 0 0 0 0 0 0 0 0 0 0 0 0 0 0 0 0 0 0 4 0 0 0 0 0 0 5 30 71 177 547 817 864 912 1011 1090 1125 1120 1220 1382 1451 1336 1318 1266 1326 1332 1138 1208 1575 1607 1704 2096 2245 2315 2456 2355 2273 2272 2291 2330 2382 2455 2457 2374 2306 2213 2192 2245 2382 2542 2531 2566 2585 2804 2884 2863 2994 3333
0 0 0 0 0 0 0 0 0 0 0 0 0 0 0 0 0 0 0 0 0 0 0 0 0 0 0 0 0 0 0 0 0 0 0 0 0 70 106 338 634 755 902 1006 1028 1054 1180 1268 1391 1263 1261 1186 1190 1230 1195 1364 1484 1489 1820 1928 2106 2214 2324 2375 2363 2315 2288 2375 2428 2467 2454 2400 2345 2264 2193 2149 2196 1944 2249 2467 2596 2594 2637 2754 3007 3176
0 0 0 0 0 0 0 0 0 0 0 0 0 0 0 0 0 0 0 0 0 0 0 0 0 0 0 0 0 0 0 0 0 0 0 0 27 40 12 140 350 514 692 883 1068 1142 1225 1159 1232 1192 1162 1097 1097 1110 1221 1466 1350 1616 1773 1635 1934 2162 2220 2325 2342 2280 2317 2428 2446 2473 2444 2437 2400 2269 2083 2099 2120 2129 2302 2435 2484 2360 2509 2589 2622 2735
0 0 0 0 0 0 0 0 0 0 0 0 0 0 0 0 0 0 0 0 0 0 0 0 0 0 0 0 0 0 0 0 0 0 0 0 2 1 7 56 191 335 478 740 912 1079 1026 1083 1183 1183 1046 978 1019 1175 1361 1355 1251 1382 1497 1651 1691 1913 2006 2216 2113 2182 2332 2397 2379 2396 2462 2485 2496 2373 2283 2262 2333 2398 2399 2194 2233 2218 2320 2450 2476 2726
0 0 0 0 0 0 0 0 0 0 0 0 0 0 0 0 0 0 0 0 0 0 0 0 0 0 0 0 0 0 0 0 0 0 0 0 5 20 20 12 70 216 322 494 576 764 909 946 946 994 1022 941 942 1035 1046 998 1029 985 1184 1498 1606 1691 1992 2063 2061 2163 2310 2315 2305 2339 2477 2527 2560 2550 2509 2467 2528 2442 2326 2257 2180 2220 2164 2434 2383 2542
0 0 0 0 0 0 0 0 0 0 0 0 0 0 0 0 0 0 0 0 0 0 0 0 0 0 0 0 0 0 0 0 0 0 1 0 0 0 22 66 118 114 168 222 362 527 666 760 783 835 900 888 846 894 866 824 927 928 985 1269 1472 1766 1900 1922 1953 2103 2293 2203 2285 2435 2524 2517 2544 2536 2467 2475 2506 2473 2369 2361 2328 2223 2227 2421 2347 2376
0 0 0 0 0 0 0 0 0 0 0 0 0 0 0 0 0 0 0 0 0 0 0 0 0 0 0 0 0 0 0 0 0 0 1 0 0 5 6 39 190 202 203 200 200 265 414 584 640 679 807 879 777 725 704 680 766 828 876 1031 1257 1384 1619 1658 1832 2056 2120 2258 2293 2336 2459 2348 2331 2412 2402 2387 2409 2425 2406 2427 2417 2355 2364 2399 2462 2424
0 0 0 0 0 0 0 0 0 0 0 0 0 0 0 0 0 0 0 0 0 0 0 0 0 0 0 0 0 0 0 0 0 0 0 0 0 0 5 8 68 381 237 66 59 44 110 390 531 565 790 929 810 791 655 630 622 738 843 930 1118 1256 1458 1478 1684 1913 2277 2343 2410 2428 2352 2329 2393 2392 2432 2350 2343 2312 2261 2337 2390 2307 2363 2281 2238 2411
0 0 0 0 0 0 0 0 0 0 0 0 0 0 0 0 0 0 0 0 0 0 0 0 0 0 0 5 0 0 0 0 0 0 0 0 0 0 2 1 68 297 594 210 64 22 44 190 488 676 913 941 1003 1074 795 716 706 691 786 884 998 1152 1290 1421 1592 1930 2282 2249 2255 2346 2420 2486 2437 2336 2235 2211 2254 2233 2193 2173 2294 2341 2285 2217 2162 2312
0 0 0 0 0 0 0 0 0 0 0 0 0 0 0 0 0 0 0 0 0 0 0 0 0 0 0 91 0 0 0 0 0 0 0 0 1 0 0 8 34 401 739 414 442 308 180 37 313 537 690 866 958 902 975 892 785 661 765 822 894 1082 1211 1438 1555 1781 1994 2050 2057 2164 2380 2454 2397 2336 2274 2178 2170 2198 2140 2106 2164 2218 2186 2182 2168 2246
0 0 0 0 0 0 0 0 0 0 0 0 0 0 0 0 0 0 0 0 0 0 0 0 0 0 0 0 0 0 0 0 0 0 0 0 0 0 4 1 320 635 783 789 867 837 493 426 564 502 680 822 1000 924 924 1010 917 706 814 846 832 980 1164 1322 1452 1679 1874 1846 1951 2231 2454 2487 2370 2292 2294 2224 2191 2183 2161 2133 2181 2249 2222 2155 2172 2215
0 0 0 0 0 0 0 0 0 0 0 0 0 0 0 0 0 0 0 0 0 0 0 0 0 0 0 0 0 0 0 0 0 0 0 0 0 0 8 76 70 290 470 252 809 996 1342 1130 710 559 700 825 670 889 920 934 948 791 1134 1034 814 927 1144 1461 1639 1821 1834 1836 1882 2338 2632 2517 2430 2364 2319 2410 2316 2294 2254 2187 2176 2212 2267 2198 2158 2136
0 0 0 0 0 0 0 0 0 0 0 0 0 0 0 0 0 0 0 0 0 0 0 0 0 0 0 0 0 71 0 0 0 0 0 0 2 10 27 52 3 2 35 266 529 819 1189 1536 1269 939 864 960 906 1030 873 1073 983 1148 1209 1029 945 958 1232 1591 1752 1917 1905 1890 1974 2435 2774 2657 2594 2453 2486 2502 2555 2487 2372 2302 2281 2328 2377 2372 2246 2135
0 0 0 0 0 0 0 0 0 0 0 0 0 0 0 0 0 0 0 0 0 0 0 72 31 0 0 0 0 0 151 145 0 0 0 0 0 0 0 0 0 0 81 76 593 935 1053 1210 1492 1295 1177 1124 780 870 963 930 954 1063 1238 1276 1260 969 1234 1470 1822 1941 1957 2089 2176 2613 2749 2645 2704 2630 2640 2654 2743 2611 2520 2469 2480 2479 2485 2525 2384 2245
0 0 0 0 0 0 0 0 0 0 0 0 0 0 0 0 0 0 0 0 0 0 0 0 0 0 0 0 0 0 0 0 9 0 0 0 0 39 0 3 0 0 0 41 460 458 938 1126 1283 1611 1473 1306 1034 960 857 1029 1069 1102 1180 1345 1262 1380 1286 1906 2162 2196 1949 2253 2604 2644 2506 2808 2793 2824 2810 2884 2860 2862 2732 2623 2609 2581 2594 2636 2526 2462
0 0 0 0 0 0 0 0 0 0 0 0 0 0 0 0 0 0 0 0 0 0 0 0 0 0 0 0 0 0 0 0 0 0 0 0 20 2 3 0 8 18 85 198 366 367 554 888 1126 1428 1682 1715 1432 1256 956 925 1215 1202 962 1231 1161 1431 1542 1597 1822 2274 2294 2505 2493 2453 2603 2733 2769 2774 2829 2802 2785 2843 2799 2796 2826 2789 2740 2674 2635 2548
0 0 0 0 0 0 0 0 0 0 0 0 0 0 0 0 0 0 0 0 0 0 0 0 0 0 0 0 0 0 0 0 0 0 0 0 0 4 34 205 333 621 310 156 83 59 341 474 884 1185 1422 1388 1331 1274 1261 1008 1185 1158 1082 1292 1429 1332 1410 1561 1963 2136 2480 2380 2454 2695 2774 2635 2722 2770 2818 2843 2852 2913 2909 2852 2807 2842 2830 2750 2754 2757
0 0 0 0 0 0 0 0 0 0 0 0 0 0 0 0 0 0 0 0 0 0 0 0 0 0 0 0 0 0 0 0 0 0 0 0 0 0 1 9 188 316 378 518 343 299 103 105 376 1146 1122 1141 1373 1270 1039 1159 1003 1450 1316 1471 1561 1510 1585 1924 2200 2268 2472 2583 2685 2763 2789 2840 2864 2836 2808 2910 2893 2870 2896 2933 2966 2931 2860 2787 2828 2855
0 0 0 0 0 0 0 0 0 0 0 0 0 0 0 0 0 0 0 0 0 0 0 0 0 0 0 0 0 0 0 0 0 0 0 0 0 71 0 120 99 62 121 317 479 484 403 307 263 500 1120 1430 1331 1095 1344 1077 1262 1544 1616 1533 1877 1862 1782 1816 1937 2189 2506 2854 2825 2926 2949 3014 2909 2862 2893 2920 2858 2908 2924 2941 2892 2886 2873 2834 2856 2815
0 0 0 0 0 0 0 0 0 0 0 0 0 0 0 0 0 0 0 0 0 0 0 0 0 0 0 0 0 0 0 585 409 0 0 0 62 50 362 499 1499 1690 2136 2159 2141 1718 1406 924 729 775 954 878 794 1190 1468 1418 1197 1347 1737 2109 2101 2095 2034 2117 2320 2490 2605 2729 2830 2951 2981 3034 3000 3056 3057 3026 2945 2896 2877 2888 2896 2900 2865 2818 2792 2733
0 0 0 0 0 0 0 0 0 0 0 0 0 0 0 0 0 0 0 0 0 0 0 0 0 0 0 0 0 0 629 993 1403 1782 1903 1678 1746 1709 1608 1609 1922 1996 2167 2574 2585 2588 2621 2197 1309 720 693 689 774 901 1157 1330 1183 1208 1806 2121 2077 2272 2409 2384 2444 2477 2693 2759 2792 2857 2977 3026 3073 3112 3151 3104 2981 2903 2842 2852 2912 2934 2909 2793 2676 2652
0 0 0 0 0 0 0 0 0 0 0 0 0 1 0 0 0 0 0 4 0 0 0 0 0 0 0 0 0 0 2 269 662 1414 1746 1740 1764 1598 1603 1937 1658 2024 1962 2163 2085 2127 2329 2424 2293 1382 945 998 780 891 1119 1286 1376 1582 1966 1901 2055 2454 2453 2531 2618 2587 2706 2585 2775 2862 2986 2956 3028 3128 3115 3134 3064 2997 2934 2982 2999 3002 2895 2802 2767 2793
0 0 0 0 0 0 0 0 0 0 0 0 2 1 0 0 0 0 0 0 0 11 5 41 0 0 0 0 0 84 310 0 0 20 1587 1706 1505 1526 1408 1388 1457 1625 1657 1808 1902 2090 2365 2380 2026 1422 893 1050 1144 1373 1977 1838 1782 2417 2796 2558 2546 2392 2346 2399 2437 2642 2814 2728 2949 2948 2818 2982 3007 3064 3133 3162 3158 3114 3034 3028 3035 2998 2972 2910 2778 2708
0 0 0 0 0 0 0 0 0 0 0 20 6 0 0 0 0 0 0 0 4 0 0 0 18 325 383 16 31 183 45 0 0 43 2296 1855 1586 1462 1628 1529 1425 1389 1618 1592 1688 2077 2243 2586 2190 1265 1678 1676 1830 2241 2439 2383 2363 2320 2579 2564 2494 2373 2280 2388 2626 2729 2739 2837 2876 2891 3105 3024 2892 3025 3117 3190 3229 3151 3146 3157 3191 3152 3133 2887 2827 2828
0 0 0 0 0 0 0 0 0 0 0 0 1 0 0 0 0 0 0 1 0 0 0 0 3 104 501 943 67 5 0 0 0 0 2061 1826 1514 1468 1362 1436 1524 1510 1516 1615 1636 1885 2308 2677 3002 2862 2745 2568 2760 2487 2687 2590 2294 2200 2762 2837 2492 2287 2414 2602 2678 2804 2847 2820 2848 2999 3083 2826 3168 3286 3166 3252 3289 3280 3270 3321 3230 3184 3067 2894 2805 2831
0 0 0 0 0 0 0 0 0 0 0 0 4 1 3 0 0 0 0 13 0 0 0 2 43 294 653 685 430 0 0 1224 1342 2358 1590 1456 1201 1300 1436 1551 1664 1856 2102 2045 1958 1652 1991 2081 2097 2074 2095 2178 2546 2358 2383 2522 2508 2630 2954 2994 2680 2678 2542 2854 2922 2956 2992 3094 2912 2921 3064 3158 3281 3254 3199 3223 3380 3321 3248 3198 3105 3090 3158 3055 2946 3012
2 0 0 0 0 0 0 0 0 0 12 1 14 1 7 0 0 0 0 0 0 0 0 1 1 136 526 724 669 196 1373 659 1592 1497 1421 1315 1412 1144 1653 1716 1844 1900 2027 2274 2435 2246 2110 1983 1986 2017 2020 2147 2548 2597 2368 2556 2796 3031 3088 2960 2937 3014 2935 3034 3070 3052 3073 3218 3023 2955 2976 3060 3247 3403 3345 3436 3509 3513 3417 3313 3226 3200 3262 3092 3126 3162
28 1 0 0 0 0 0 0 0 0 34 0 7 0 21 0 26 6 0 0 0 0 0 0 0 87 414 736 603 429 896 1172 1293 1289 1084 1173 1228 1453 1598 1825 1891 1945 1959 2000 2033 2108 2204 2408 2456 2477 2500 2260 2099 2653 3028 2489 3116 3176 2998 3225 3709 3476 2862 2842 2879 3060 3117 3210 3126 3117 3150 3284 3420 3470 3501 3620 3720 3728 3653 3548 3444 3447 3478 3421 3330 3280
7 4 4 3 0 0 0 0 0 36 210 90 0 26 106 82 12 0 0 0 0 0 0 0 0 5 24 445 531 641 801 818 848 1134 1134 1143 1292 1298 1450 1446 1557 1717 1729 1718 1830 1842 1873 2109 2420 2607 2657 2692 2680 2342 2708 3926 3657 3424 3390 3061 2542 3178 4018 3182 3127 3235 3176 3190 3196 3274 3284 3404 3515 3551 3550 3784 3886 3692 3717 3840 3732 3649 3670 3498 3505 3356
34 37 44 5 6 7 27 105 189 22 110 110 79 121 54 0 0 0 0 0 0 0 0 0 0 82 323 128 357 430 474 795 1188 1245 1514 1218 1237 1329 1284 1360 1440 1553 1635 1718 1845 1869 1809 1760 1833 1797 2144 2516 2801 2864 2818 2639 2797 2557 2412 2471 2565 2734 3141 3828 3923 3452 3346 3167 3150 3270 3286 3409 3483 3675 3782 3855 3872 3785 3803 3909 3895 3758 3649 3580 3480 3327
22 6 11 42 22 11 11 0 0 17 51 91 110 54 14 0 0 0 0 0 0 0 0 408 122 338 449 353 297 317 748 1075 1368 1400 1318 1283 1117 1078 1124 992 1090 1111 1128 1335 1465 1631 1657 1683 1672 1633 1634 1669 1680 1778 2088 2565 2847 2942 2977 3093 3126 3118 3131 3500 4073 3816 3610 3422 3357 3278 3230 3233 3178 3458 3678 3726 3673 3735 3830 3710 3751 3686 3730 3490 3169 3308
1 3 4 5 4 0 0 302 251 296 163 126 102 30 5 0 0 0 0 0 0 0 428 570 552 499 479 370 365 750 1131 1359 1513 1351 1015 700 597 533 584 629 606 689 709 824 1199 1281 1388 1407 1527 1513 1441 1472 1558 1530 1541 1507 1607 1604 1698 1848 2018 2446 2847 3164 3390 3806 3783 3688 3587 3535 3375 3232 3099 3131 3278 3450 3477 3563 3706 3754 3719 3643 3613 3557 3326 3323
1 17 1 2 1 1 0 0 46 103 104 172 105 34 16 2 0 9 24 65 82 203 490 573 562 535 457 608 739 978 1355 1382 1216 746 238 262 234 324 429 509 616 653 673 832 971 1069 1151 1206 1270 1369 1369 1370 1387 1407 1446 1389 1409 1372 1361 1304 1514 1756 1982 2349 2874 3092 3286 3498 3473 3371 3369 3309 3166 2901 2851 3069 3259 3261 3392 3549 3525 3560 3589 3494 3399 3322
0 0 4 0 2 2 0 0 0 0 15 33 42 32 31 19 14 55 25 0 63 201 514 454 522 563 684 811 898 1019 1087 844 392 201 204 240 302 367 540 533 524 717 775 789 718 738 710 892 1017 973 1112 988 1142 1060 975 982 912 914 1079 1087 1354 1560 1485 1794 2004 2264 2667 3021 3256 3435 3422 3359 3285 3177 3086 2968 2859 2849 3231 3398 3476 3494 3468 3559 3670 3607
1 0 0 4 6 5 2 0 43 18 36 62 93 37 34 42 58 30 10 20 91 251 488 470 512 508 574 624 526 394 252 65 137 207 295 358 421 461 520 597 611 726 703 682 663 666 750 710 760 800 803 813 835 919 922 869 840 727 691 831 969 1069 1178 1454 1546 1479 1560 1719 1724 2269 2866 3212 3321 3315 3427 3410 3237 3020 2808 2668 2665 2705 3049 3385 3232 3210
0 0 10 8 16 2 0 1 10 59 41 7 38 74 58 60 80 39 24 57 124 130 315 322 286 294 288 154 20 224 281 386 370 399 439 459 451 449 492 593 739 684 732 854 906 886 915 896 884 849 838 866 987 986 1021 993 982 892 803 792 788 845 905 988 1026 856 874 893 942 1101 1605 1576 1559 1960 2501 2820 2998 3151 3186 3181 3179 3069 2987 2871 2809 2717
Wind_Speed
nan nan nan nan nan nan nan nan nan nan nan nan nan nan nan nan nan nan nan nan nan nan nan nan nan nan nan 20 15 12 11 13 12 11 12 14 16 19 20 19 18 19 18 14 15 14 9 7 3 0 4 4 7 7 6 6 6 5 3 4 5 3 3 3 3 4 5 5 6 7 8 9 9 10 11 11 10 10 10 9 8 7 8 8 9 10
nan nan nan nan nan nan nan nan nan nan nan nan nan nan nan nan nan nan nan nan nan nan nan nan nan nan nan nan 17 12 11 13 11 11 13 13 15 16 20 21 20 16 9 12 13 13 9 5 5 2 2 3 6 8 7 7 7 6 5 4 3 3 3 2 2 3 4 4 5 5 6 7 8 9 9 10 9 9 8 7 6 7 8 8 9 9
nan nan nan nan nan nan nan nan nan nan nan nan nan nan nan nan nan nan nan nan nan nan nan nan nan nan nan nan 17 10 11 11 10 10 11 11 12 14 15 18 17 13 12 13 14 14 11 8 7 4 4 5 7 7 8 8 6 6 5 5 3 2 1 2 1 1 3 3 4 4 5 5 7 8 8 9 8 7 7 5 5 6 7 8 8 9
nan nan nan nan nan nan nan nan nan nan nan nan nan nan nan nan nan nan nan nan nan nan nan nan nan nan nan nan 21 15 12 11 8 8 7 9 12 15 16 16 16 15 13 14 15 14 11 9 6 4 4 4 5 6 7 6 7 5 5 5 4 1 1 1 1 2 2 2 3 4 5 4 6 7 7 8 8 7 6 6 4 5 6 7 8 8
nan nan nan nan nan nan nan nan nan nan nan nan nan nan nan nan nan nan nan nan nan nan nan nan nan nan nan nan 24 20 16 16 11 8 8 8 10 14 14 13 14 15 13 12 13 13 12 10 8 5 3 3 5 5 6 6 6 5 6 4 4 1 1 1 1 3 2 1 2 3 5 7 8 9 8 7 6 6 5 4 4 5 5 6 7 7
nan nan nan nan nan nan nan nan nan nan nan nan nan nan nan nan nan nan nan nan nan nan nan nan nan nan nan nan nan 28 21 16 13 10 11 8 8 10 14 17 15 14 10 11 13 13 11 8 5 3 3 4 4 4 6 6 5 4 4 3 3 2 2 1 2 5 3 1 4 1 1 3 5 5 5 4 3 3 2 3 3 2 3 4 5 6
nan nan nan nan nan nan nan nan nan nan nan nan nan nan nan nan nan nan nan nan nan nan nan nan nan nan nan nan nan 28 22 17 17 14 15 10 10 11 12 15 15 14 11 10 9 8 9 8 6 5 4 3 2 3 3 4 5 5 5 4 3 1 2 1 3 6 2 4 2 4 4 2 1 2 4 5 4 3 3 3 1 1 1 3 5 6
nan nan nan nan nan nan nan nan nan nan nan nan nan nan nan nan nan nan nan nan nan nan nan nan nan nan nan nan nan 29 23 19 17 15 15 12 11 12 12 14 15 14 13 9 11 10 9 7 7 7 5 2 3 2 2 3 3 5 5 3 3 2 2 1 2 5 4 3 4 4 5 3 2 1 3 4 5 5 5 3 1 1 1 2 4 5
nan nan nan nan nan nan nan nan nan nan nan nan nan nan nan nan nan nan nan nan nan nan nan nan nan nan nan nan nan nan 26 20 18 15 12 13 13 12 13 13 13 14 13 10 9 11 10 9 7 4 3 3 2 2 3 3 2 3 3 3 2 1 1 0 3 5 7 3 5 6 6 5 3 2 2 5 6 6 6 3 4 2 1 2 3 4
nan nan nan nan nan nan nan nan nan nan nan nan nan nan nan nan nan nan nan nan nan nan nan nan nan nan nan nan nan nan nan nan 16 16 13 11 10 10 12 12 12 12 12 12 10 9 10 8 5 4 3 2 2 2 3 3 2 2 2 2 2 3 1 2 4 4 5 5 6 7 7 8 6 5 3 5 6 7 7 5 4 4 3 2 2 3
nan nan nan nan nan nan nan nan nan nan nan nan nan nan nan nan nan nan nan nan nan nan nan nan nan nan nan nan nan nan nan nan nan 21 18 14 11 10 11 11 10 10 12 11 10 8 8 6 4 2 3 3 2 1 2 2 2 2 1 1 2 3 2 3 5 5 5 5 5 6 8 9 8 7 5 6 7 8 8 6 5 5 4 3 2 3
nan nan nan nan nan nan nan nan nan nan nan nan nan nan nan nan nan nan nan nan nan nan nan nan nan nan nan nan nan nan nan nan nan nan 17 15 11 9 8 9 11 10 9 10 9 9 6 5 5 5 5 3 3 3 2 0 1 1 1 1 1 1 2 4 4 5 5 5 5 5 8 9 9 9 7 6 7 8 7 7 7 7 7 5 5 5
nan nan nan nan nan nan nan nan nan nan nan nan nan nan nan nan nan nan nan nan nan nan nan nan nan nan nan nan nan nan nan nan nan nan nan 16 13 10 8 9 10 9 8 7 8 7 4 5 7 8 7 3 2 2 4 3 3 2 2 2 2 1 2 2 3 5 5 5 5 6 7 9 10 10 8 7 8 10 9 8 8 9 8 8 8 7
nan nan nan nan nan nan nan nan nan nan nan nan nan nan nan nan nan nan nan nan nan nan nan nan nan nan nan nan nan nan nan nan nan nan nan 19 14 10 9 9 9 7 7 7 6 6 5 4 5 7 6 3 1 3 2 3 3 2 3 4 4 3 3 2 3 4 5 5 6 7 7 9 11 10 9 8 9 10 11 10 8 9 9 9 8 8
nan nan nan nan nan nan nan nan nan nan nan nan nan nan nan nan nan nan nan nan nan nan nan nan nan nan nan nan nan nan nan nan nan nan nan nan 17 14 12 10 7 7 7 6 5 5 7 5 3 3 4 3 2 2 1 0 2 3 4 5 6 4 3 4 4 4 5 4 6 7 8 9 9 9 10 9 9 11 12 10 9 9 10 9 9 9
nan nan nan nan nan nan nan nan nan nan nan nan nan nan nan nan nan nan nan nan nan nan nan nan nan nan nan nan nan nan nan nan nan nan nan nan nan 20 20 16 11 8 6 4 3 3 5 5 2 2 2 2 2 4 3 2 3 2 3 5 7 7 6 6 6 5 6 6 7 8 9 9 9 9 9 10 11 11 12 12 10 10 11 10 10 10
nan nan nan nan nan nan nan nan nan nan nan nan nan nan nan nan nan nan nan nan nan nan nan nan nan nan nan nan nan nan nan nan nan nan nan nan nan nan 20 16 12 9 6 5 2 2 2 2 3 3 1 2 3 5 6 5 6 5 4 5 6 7 8 9 9 8 8 9 10 10 11 11 11 10 9 9 10 9 11 12 11 11 10 11 11 10
nan nan nan nan nan nan nan nan nan nan nan nan nan nan nan nan nan nan nan nan nan nan nan nan nan nan nan nan nan nan nan nan nan nan nan nan nan nan nan 16 13 9 5 3 2 2 4 3 2 2 3 2 3 5 7 8 8 6 6 6 7 10 10 10 10 10 10 11 11 12 12 13 12 11 10 9 10 12 12 13 13 12 12 11 11 11
nan nan nan nan nan nan nan nan nan nan nan nan nan nan nan nan nan nan nan nan nan nan nan nan nan nan nan nan nan nan nan nan nan nan nan nan nan nan nan nan 14 12 10 6 2 3 5 6 7 6 4 4 4 6 7 9 10 10 8 7 8 10 11 12 12 12 12 12 12 13 14 15 14 14 13 12 13 14 13 13 13 12 12 13 14 13
nan nan nan nan nan nan nan nan nan nan nan nan nan nan nan nan nan nan nan nan nan nan nan nan nan nan nan nan nan nan nan nan nan nan nan nan nan nan nan nan nan 14 10 6 2 1 6 10 14 14 12 9 7 8 7 10 11 10 10 10 9 9 11 13 13 13 14 14 14 14 15 16 15 16 16 15 16 16 14 14 14 14 14 15 15 14
nan nan nan nan nan nan nan nan nan nan nan nan nan nan nan nan nan nan nan nan nan nan nan nan nan nan nan nan nan nan nan nan nan nan nan nan nan nan nan nan 21 15 12 8 6 4 4 8 12 14 14 12 10 10 10 12 12 11 12 12 11 13 15 15 14 14 13 14 13 14 15 15 15 15 15 15 15 16 15 16 16 16 15 17 16 16
nan nan nan nan nan nan nan nan nan nan nan nan nan nan nan nan nan nan nan nan nan nan nan nan nan nan nan nan nan nan nan nan nan nan nan nan nan nan nan nan 21 19 13 11 10 10 8 6 7 10 12 14 14 13 13 12 14 14 14 12 13 13 13 13 14 13 13 14 13 14 13 14 14 14 14 14 14 15 16 17 18 18 19 17 18 18
nan nan nan nan nan nan nan nan nan nan nan nan nan nan nan nan nan nan nan nan nan nan nan nan nan nan nan nan nan nan nan nan nan nan nan nan nan nan nan nan nan 24 20 nan nan nan 13 10 9 10 14 17 16 17 16 14 14 16 15 14 15 15 14 14 14 13 14 14 13 14 14 14 14 15 15 15 14 13 15 17 19 20 19 18 18 18
nan nan nan nan nan nan nan nan nan nan nan nan nan nan nan nan nan nan nan nan nan nan nan nan nan nan nan nan nan nan nan nan nan nan nan nan nan nan nan nan nan 22 21 20 nan nan nan 17 16 15 15 16 16 18 19 18 17 17 16 16 16 14 14 15 14 14 15 14 13 14 15 16 15 17 16 15 13 13 13 15 18 20 19 19 19 19
nan nan nan nan nan nan nan nan nan nan nan nan nan nan nan nan nan nan nan nan nan nan nan nan nan nan nan nan nan nan nan nan nan nan nan nan nan nan nan nan nan 26 25 21 19 20 22 nan 15 12 12 15 17 18 18 19 20 18 17 16 14 12 14 15 15 15 15 15 14 14 15 17 16 16 17 16 13 14 13 13 14 17 18 19 19 19
nan nan nan nan nan nan nan nan nan nan nan nan nan nan nan nan nan nan nan nan nan nan nan nan nan nan nan nan nan nan nan nan nan nan nan nan nan nan nan nan 25 26 24 22 21 23 21 18 15 12 11 16 19 17 15 15 17 15 16 14 11 11 14 14 15 14 15 15 14 14 16 17 16 17 17 17 16 16 15 14 13 14 16 17 17 18
nan nan nan nan nan nan nan nan nan nan nan nan nan nan nan nan nan nan nan nan nan nan nan nan nan nan nan nan nan nan nan nan nan nan nan nan nan nan nan nan nan 33 31 27 26 27 29 26 17 12 11 16 19 17 14 14 14 13 14 12 11 12 14 16 16 14 14 15 14 14 16 17 16 15 16 17 17 16 16 16 16 15 15 16 16 16
nan nan nan nan nan nan nan nan nan nan nan nan nan nan nan nan nan nan nan nan nan nan nan nan nan nan nan nan nan nan nan nan nan nan nan nan nan nan nan nan nan nan nan 31 29 26 24 23 21 18 14 16 20 21 16 14 13 13 13 11 11 13 15 17 16 15 13 14 13 13 16 16 15 15 15 16 16 17 18 19 19 18 16 17 18 18
nan nan nan nan nan nan nan nan nan nan nan nan nan nan nan nan nan nan nan nan nan nan nan nan nan nan nan nan nan nan 15 16 nan nan nan nan nan nan nan nan nan nan nan nan 29 28 26 24 22 20 17 16 20 22 19 17 13 12 13 12 14 14 13 15 15 13 12 12 12 13 15 15 14 14 15 16 17 18 18 19 19 20 19 19 19 17
nan nan nan nan nan nan nan nan nan nan nan nan nan nan nan nan nan nan nan nan nan nan nan nan nan nan nan nan nan nan nan nan nan nan nan nan nan nan nan nan nan nan nan nan 28 28 26 24 23 22 20 19 18 19 20 19 16 15 15 15 15 14 13 19 17 13 10 10 10 12 14 16 16 16 16 17 18 18 19 19 20 20 21 20 21 20
nan nan nan nan nan nan nan nan nan nan nan nan nan nan nan nan nan nan nan nan nan nan nan nan nan nan nan nan nan nan nan nan nan nan nan nan nan nan nan nan nan nan nan 25 28 29 27 25 24 24 22 20 18 18 19 19 17 17 16 17 16 14 15 17 13 12 10 9 10 13 16 17 15 16 16 17 17 18 19 20 20 20 20 21 21 22
nan nan nan nan nan nan nan nan nan nan nan nan nan nan nan nan nan nan nan nan nan nan nan nan nan nan nan nan nan nan nan nan nan nan nan nan nan nan nan 21 20 19 21 25 nan nan 26 24 22 21 20 18 18 19 21 19 19 20 17 18 16 15 17 16 14 12 10 9 13 17 17 16 16 17 17 18 19 20 21 20 20 20 21 21 22 21
nan nan nan nan nan nan nan nan nan nan nan nan nan nan nan nan nan nan nan nan nan nan nan nan nan nan nan nan nan nan nan nan nan nan nan nan nan nan nan nan 20 20 21 23 23 23 23 23 22 20 17 18 20 20 18 20 19 18 17 18 16 18 17 15 13 12 11 13 17 17 16 18 18 17 17 18 20 21 22 22 21 21 22 22 22 21
nan nan nan nan nan nan nan nan nan nan nan nan nan nan nan nan nan nan nan nan nan nan nan nan nan nan nan nan nan nan nan nan nan nan nan nan nan nan nan 22 nan nan 23 22 22 22 22 23 24 23 18 18 17 17 20 21 18 16 18 17 19 18 14 14 12 13 13 16 17 17 18 19 19 19 18 19 21 22 23 23 21 21 22 22 22 21
nan nan nan nan nan nan nan nan nan nan nan nan nan nan nan nan nan nan nan nan nan nan nan nan nan nan nan nan nan nan nan 26 38 nan nan nan nan nan 28 28 28 26 25 24 23 23 24 23 23 23 22 19 18 23 26 21 18 22 25 25 21 18 17 16 16 17 17 18 19 20 20 19 19 19 20 21 22 22 22 23 23 23 23 24 25 23
nan nan nan nan nan nan nan nan nan nan nan nan nan nan nan nan nan nan nan nan nan nan nan nan nan nan nan nan nan nan 31 40 41 39 35 34 33 32 32 31 31 30 28 29 27 25 24 25 25 24 24 26 26 24 23 21 22 26 29 29 25 23 20 19 19 20 23 23 23 22 21 21 21 21 21 22 23 22 22 23 24 24 24 25 25 24
nan nan nan nan nan nan nan nan nan nan nan nan nan nan nan nan nan nan nan nan nan nan nan nan nan nan nan nan nan nan nan 37 38 35 35 33 32 33 34 35 35 33 32 30 29 27 26 26 25 24 25 27 26 25 23 24 27 31 34 31 27 27 25 26 25 24 23 23 24 25 26 26 25 23 21 23 24 22 22 22 22 24 26 25 26 27
nan nan nan nan nan nan nan nan nan nan nan nan nan nan nan nan nan nan nan nan nan nan nan nan nan nan nan nan nan nan 39 nan nan nan 33 33 34 35 36 37 37 35 34 33 32 30 30 29 28 26 26 27 25 24 27 28 29 34 36 32 31 28 27 27 24 24 24 22 25 29 30 31 30 26 22 23 22 22 22 23 23 24 27 26 26 26
nan nan nan nan nan nan nan nan nan nan nan nan nan nan nan nan nan nan nan nan nan nan nan nan nan 45 41 nan nan 39 nan nan nan nan 40 37 37 37 37 39 39 38 38 37 34 35 36 35 33 32 32 32 29 27 27 27 29 33 34 33 31 29 26 24 22 25 26 25 25 28 31 33 33 28 23 21 21 22 23 25 26 28 31 30 29 28
nan nan nan nan nan nan nan nan nan nan nan nan nan nan nan nan nan nan nan nan nan nan nan nan nan 45 43 42 nan nan nan nan nan nan 44 42 40 40 38 38 39 39 39 38 37 37 39 39 39 41 41 41 39 34 28 27 27 29 33 34 33 29 25 25 29 31 29 26 24 27 30 32 34 31 26 24 24 25 25 28 30 31 33 33 33 33
nan nan nan nan nan nan nan nan nan nan nan nan nan nan nan nan nan nan nan nan nan nan nan nan nan 46 43 40 39 nan nan 42 44 47 48 47 44 41 40 38 38 37 38 40 40 41 42 43 44 44 44 42 40 38 35 31 29 30 32 35 33 29 28 32 35 33 31 30 29 29 30 32 32 28 27 27 27 28 28 29 30 33 34 34 35 34
nan nan nan nan nan nan nan nan nan nan nan nan nan nan nan nan nan nan nan nan nan nan nan nan nan 47 45 40 38 35 43 43 44 45 48 47 46 43 41 40 38 38 39 41 43 43 44 45 46 47 47 46 44 43 40 38 36 36 37 36 34 33 34 37 38 36 35 34 31 28 29 30 28 27 28 29 31 32 31 31 33 34 34 35 36 36
nan nan nan nan nan nan nan nan nan nan nan nan nan nan nan nan nan nan nan nan nan nan nan nan nan nan 48 43 39 39 44 42 43 45 47 47 46 45 43 42 40 40 41 42 44 45 46 47 48 49 49 48 49 47 44 43 45 44 43 43 45 44 40 38 37 38 35 32 29 28 28 29 30 30 30 31 33 35 35 36 38 39 39 39 38 37
nan nan nan nan nan nan nan nan nan nan 87 nan nan nan 74 nan nan nan nan nan nan nan nan nan nan nan nan 45 42 44 45 44 44 45 46 47 46 45 45 43 42 42 43 43 44 46 49 51 50 51 52 51 51 51 50 48 49 49 49 50 45 43 40 37 35 35 33 32 31 30 29 30 31 32 33 33 36 35 35 38 40 41 42 41 42 40
nan nan nan nan nan nan nan 90 92 nan 84 81 nan 77 nan nan nan nan nan nan nan nan nan nan nan nan 49 48 46 46 46 45 45 44 45 46 46 46 45 45 45 46 45 44 44 46 49 51 52 52 54 53 54 53 53 53 53 54 52 47 45 43 41 40 37 36 35 34 34 33 32 32 33 34 35 37 39 38 37 37 40 41 40 42 41 40
nan nan nan nan nan nan nan nan nan nan nan nan 79 nan nan nan nan nan nan nan nan nan nan 60 55 52 50 48 45 48 48 47 48 48 48 48 48 48 47 47 46 47 47 45 45 45 47 49 50 52 54 55 55 55 55 55 55 56 52 48 47 46 45 45 44 41 38 38 38 37 37 35 34 35 37 38 40 40 40 40 40 40 42 42 41 41
nan nan nan nan nan nan nan 92 82 80 80 80 78 nan nan nan nan nan nan nan nan nan 71 64 58 55 52 52 51 50 49 48 49 51 51 51 51 50 49 48 48 47 47 46 45 45 46 48 48 50 51 54 54 56 56 57 56 55 53 53 51 51 50 50 51 49 48 45 44 43 42 41 40 40 40 40 40 41 42 43 41 40 41 42 42 43
nan nan nan nan nan nan nan nan nan 87 86 77 77 nan nan nan nan nan nan nan nan 76 72 69 62 58 56 54 54 53 53 50 50 52 52 52 51 51 50 49 49 49 49 48 47 47 49 50 50 49 49 49 51 53 56 58 58 58 56 56 55 54 54 55 56 55 55 54 51 48 45 43 44 42 41 40 41 41 42 41 41 42 40 41 43 44
nan nan nan nan nan nan nan nan nan nan nan nan nan nan nan nan nan nan nan nan nan 78 72 71 67 60 57 56 55 56 56 53 52 52 53 52 53 53 53 53 52 52 52 53 53 52 51 51 52 51 51 49 49 50 52 55 57 58 59 59 58 57 58 58 58 57 56 54 53 51 49 46 45 43 42 41 40 41 41 42 43 43 42 44 47 48
nan nan nan nan nan nan nan nan nan nan nan nan nan nan nan nan nan nan nan nan nan 78 71 70 67 63 59 58 57 58 59 nan 54 51 52 52 52 53 55 54 54 56 56 56 55 55 55 55 54 54 54 53 51 51 51 52 53 54 56 56 56 57 58 57 56 55 53 51 50 49 49 50 51 52 52 52 52 52 51 54 54 53 52 50 49 48
nan nan nan nan nan nan nan nan nan nan nan nan nan nan nan nan nan nan nan nan 80 72 66 66 65 62 58 57 nan 60 60 57 55 54 55 55 55 54 55 56 57 57 58 58 58 58 57 56 56 56 56 54 54 55 54 54 54 53 54 54 54 55 57 56 56 54 53 53 52 50 50 51 52 52 53 53 53 53 52 51 49 49 48 49 48 48
Wind_Direction
nan nan nan nan nan nan nan nan nan nan nan nan nan nan nan nan nan nan nan nan nan nan nan nan nan nan nan 170 156 141 131 113 110 93 78 58 43 36 28 20 18 22 24 13 18 21 20 24 17 20 182 145 100 105 86 71 67 60 68 60 56 82 75 86 109 126 130 120 114 115 107 112 117 116 115 118 122 123 123 118 110 101 93 82 70 61
nan nan nan nan nan nan nan nan nan nan nan nan nan nan nan nan nan nan nan nan nan nan nan nan nan nan nan nan 170 161 129 99 93 96 90 73 57 45 32 23 21 21 7 5 16 27 30 47 38 25 148 101 79 85 76 68 64 62 60 63 80 83 77 109 136 141 124 118 115 113 111 120 125 119 117 123 131 130 131 121 112 103 91 79 68 59
nan nan nan nan nan nan nan nan nan nan nan nan nan nan nan nan nan nan nan nan nan nan nan nan nan nan nan nan 175 157 115 108 89 80 77 80 76 70 48 31 24 10 3 7 19 23 33 37 43 53 72 91 86 87 83 78 83 76 74 78 80 101 78 85 90 146 125 128 124 126 139 124 138 137 141 142 147 144 132 122 103 92 84 73 67 58
nan nan nan nan nan nan nan nan nan nan nan nan nan nan nan nan nan nan nan nan nan nan nan nan nan nan nan nan 171 152 137 140 112 92 105 111 93 80 62 43 31 17 1 6 14 24 35 42 54 71 86 104 102 102 93 89 69 84 84 75 65 90 108 141 66 86 129 121 114 115 159 151 156 169 165 158 156 136 127 116 101 89 77 68 66 57
nan nan nan nan nan nan nan nan nan nan nan nan nan nan nan nan nan nan nan nan nan nan nan nan nan nan nan nan 182 170 168 168 153 138 128 121 106 101 101 81 54 33 14 7 14 26 33 36 43 52 89 111 94 87 82 77 79 116 64 62 54 119 64 167 355 29 44 72 134 124 127 164 171 171 173 171 150 133 138 125 100 85 72 68 66 60
nan nan nan nan nan nan nan nan nan nan nan nan nan nan nan nan nan nan nan nan nan nan nan nan nan nan nan nan nan 197 197 169 171 147 120 117 103 89 81 76 62 47 30 14 17 25 31 40 45 50 56 68 93 88 85 82 82 101 113 89 66 109 166 169 6 15 7 337 31 1 179 139 139 146 154 147 153 160 146 109 124 103 66 58 58 58
nan nan nan nan nan nan nan nan nan nan nan nan nan nan nan nan nan nan nan nan nan nan nan nan nan nan nan nan nan 199 197 177 184 150 135 136 118 94 82 82 72 52 36 23 28 33 34 36 36 40 46 52 77 93 107 103 99 88 104 86 69 118 166 77 10 11 316 16 317 333 336 353 68 146 166 189 198 201 208 203 204 223 35 39 47 52
nan nan nan nan nan nan nan nan nan nan nan nan nan nan nan nan nan nan nan nan nan nan nan nan nan nan nan nan nan 205 203 189 174 154 141 131 111 97 89 80 76 65 50 29 21 27 37 33 32 37 35 29 69 92 100 91 86 66 67 74 69 140 165 200 7 12 8 354 318 325 318 318 337 106 196 233 236 233 228 228 261 265 344 0 28 40
nan nan nan nan nan nan nan nan nan nan nan nan nan nan nan nan nan nan nan nan nan nan nan nan nan nan nan nan nan nan 202 193 162 151 137 121 112 105 97 83 76 74 65 48 27 22 26 34 38 51 63 61 78 121 89 68 63 74 75 76 77 93 178 232 343 9 17 331 299 304 302 308 284 267 211 226 231 237 239 231 243 260 271 298 347 11
nan nan nan nan nan nan nan nan nan nan nan nan nan nan nan nan nan nan nan nan nan nan nan nan nan nan nan nan nan nan nan nan 157 149 139 126 119 111 104 94 84 87 88 76 55 29 24 30 37 52 91 119 96 98 106 102 135 132 129 69 30 26 290 280 328 347 344 352 277 287 300 315 290 272 243 235 242 244 248 252 258 251 245 250 297 340
nan nan nan nan nan nan nan nan nan nan nan nan nan nan nan nan nan nan nan nan nan nan nan nan nan nan nan nan nan nan nan nan nan 172 165 152 142 121 107 95 87 85 83 85 76 56 33 31 45 43 60 64 56 112 96 107 138 148 136 36 11 11 283 310 319 321 331 348 294 289 298 308 303 298 280 263 258 252 256 263 275 276 273 263 271 298
nan nan nan nan nan nan nan nan nan nan nan nan nan nan nan nan nan nan nan nan nan nan nan nan nan nan nan nan nan nan nan nan nan nan 169 160 142 132 125 108 88 79 80 77 83 76 37 6 33 43 58 49 29 19 17 41 170 185 186 227 20 21 354 19 342 334 324 312 312 293 294 300 301 299 284 291 283 277 278 276 273 272 269 271 270 278
nan nan nan nan nan nan nan nan nan nan nan nan nan nan nan nan nan nan nan nan nan nan nan nan nan nan nan nan nan nan nan nan nan nan nan 164 156 144 125 101 101 93 85 86 80 79 62 14 11 24 43 48 23 6 13 15 16 328 291 311 346 13 328 303 318 348 336 334 318 301 295 294 287 300 300 286 278 276 274 270 271 274 275 270 273 284
nan nan nan nan nan nan nan nan nan nan nan nan nan nan nan nan nan nan nan nan nan nan nan nan nan nan nan nan nan nan nan nan nan nan nan 171 176 158 139 130 128 124 106 101 95 87 83 56 17 13 21 18 46 26 359 8 6 323 297 314 341 9 315 295 309 326 331 336 318 303 290 284 285 301 301 284 274 272 270 268 272 276 278 276 288 290
nan nan nan nan nan nan nan nan nan nan nan nan nan nan nan nan nan nan nan nan nan nan nan nan nan nan nan nan nan nan nan nan nan nan nan nan 178 167 163 170 155 144 130 134 143 117 103 97 40 353 337 338 352 357 6 27 343 297 303 310 331 334 316 315 315 304 335 316 308 292 291 285 285 295 292 288 274 272 278 278 276 269 271 274 278 289
nan nan nan nan nan nan nan nan nan nan nan nan nan nan nan nan nan nan nan nan nan nan nan nan nan nan nan nan nan nan nan nan nan nan nan nan nan 183 192 191 183 165 144 154 163 132 113 125 154 198 274 320 302 315 314 343 286 331 343 319 326 330 314 313 313 309 311 299 281 295 297 299 293 283 286 281 277 272 276 279 278 273 274 275 278 282
nan nan nan nan nan nan nan nan nan nan nan nan nan nan nan nan nan nan nan nan nan nan nan nan nan nan nan nan nan nan nan nan nan nan nan nan nan nan 206 199 194 182 174 191 162 151 90 171 183 171 242 281 291 290 314 310 309 345 308 299 312 308 300 311 318 313 294 288 287 294 295 293 293 299 305 298 301 295 275 274 274 269 273 275 276 279
nan nan nan nan nan nan nan nan nan nan nan nan nan nan nan nan nan nan nan nan nan nan nan nan nan nan nan nan nan nan nan nan nan nan nan nan nan nan nan 208 203 192 199 247 299 316 289 283 280 217 205 266 296 316 315 304 301 289 284 306 305 298 313 312 307 304 292 290 289 283 288 293 295 294 302 294 291 287 280 279 272 271 268 277 279 279
nan nan nan nan nan nan nan nan nan nan nan nan nan nan nan nan nan nan nan nan nan nan nan nan nan nan nan nan nan nan nan nan nan nan nan nan nan nan nan nan 207 204 210 229 314 296 308 316 316 312 327 337 311 288 284 287 285 274 277 285 300 311 319 311 297 298 287 294 281 278 287 292 288 286 284 283 283 283 287 292 283 282 275 271 276 279
nan nan nan nan nan nan nan nan nan nan nan nan nan nan nan nan nan nan nan nan nan nan nan nan nan nan nan nan nan nan nan nan nan nan nan nan nan nan nan nan nan 220 216 217 200 307 336 345 346 341 333 332 326 303 286 287 278 298 295 289 288 294 287 289 298 301 306 310 302 294 291 294 292 290 285 282 280 281 288 288 285 284 279 277 277 281
nan nan nan nan nan nan nan nan nan nan nan nan nan nan nan nan nan nan nan nan nan nan nan nan nan nan nan nan nan nan nan nan nan nan nan nan nan nan nan nan 221 223 220 216 211 230 312 341 345 341 330 325 313 286 273 266 278 285 279 283 294 292 298 308 313 311 308 301 304 304 305 304 300 301 290 287 283 281 282 282 283 282 279 274 279 282
nan nan nan nan nan nan nan nan nan nan nan nan nan nan nan nan nan nan nan nan nan nan nan nan nan nan nan nan nan nan nan nan nan nan nan nan nan nan nan nan 209 214 219 227 227 233 243 275 309 318 300 287 285 283 284 266 262 268 274 281 290 293 297 315 316 311 306 303 303 315 310 310 305 305 301 302 293 288 281 279 279 278 275 280 282 284
nan nan nan nan nan nan nan nan nan nan nan nan nan nan nan nan nan nan nan nan nan nan nan nan nan nan nan nan nan nan nan nan nan nan nan nan nan nan nan nan nan 202 202 nan nan nan 232 241 254 270 274 276 282 277 282 271 263 268 279 281 281 292 307 316 318 309 294 296 300 313 311 313 315 315 320 322 310 305 294 282 278 277 280 282 279 282
nan nan nan nan nan nan nan nan nan nan nan nan nan nan nan nan nan nan nan nan nan nan nan nan nan nan nan nan nan nan nan nan nan nan nan nan nan nan nan nan nan 202 204 212 nan nan nan 227 232 241 262 268 274 273 278 274 268 265 265 272 280 301 314 311 305 297 290 294 305 311 314 320 324 331 334 334 323 320 309 290 280 279 282 283 281 283
nan nan nan nan nan nan nan nan nan nan nan nan nan nan nan nan nan nan nan nan nan nan nan nan nan nan nan nan nan nan nan nan nan nan nan nan nan nan nan nan nan 200 207 213 217 220 223 nan 227 244 268 277 276 274 279 276 271 269 265 271 285 296 304 299 296 295 298 305 314 317 323 333 334 339 345 347 337 338 326 312 294 285 289 286 287 288
nan nan nan nan nan nan nan nan nan nan nan nan nan nan nan nan nan nan nan nan nan nan nan nan nan nan nan nan nan nan nan nan nan nan nan nan nan nan nan nan 199 203 208 211 209 212 215 213 216 230 263 277 276 280 291 289 278 274 266 275 284 285 285 292 292 297 295 300 310 316 328 335 341 350 352 353 353 351 343 331 320 309 301 305 305 303
nan nan nan nan nan nan nan nan nan nan nan nan nan nan nan nan nan nan nan nan nan nan nan nan nan nan nan nan nan nan nan nan nan nan nan nan nan nan nan nan nan 203 206 207 208 207 210 211 213 220 248 272 280 276 284 293 285 277 264 273 287 275 275 278 280 283 288 298 313 312 324 332 342 344 347 349 354 356 357 356 352 345 336 330 334 332
nan nan nan nan nan nan nan nan nan nan nan nan nan nan nan nan nan nan nan nan nan nan nan nan nan nan nan nan nan nan nan nan nan nan nan nan nan nan nan nan nan nan nan 214 214 215 217 218 219 223 238 263 271 268 275 285 290 278 270 278 281 277 271 266 274 274 278 290 304 313 320 324 329 336 339 341 346 356 3 6 6 3 356 348 348 349
nan nan nan nan nan nan nan nan nan nan nan nan nan nan nan nan nan nan nan nan nan nan nan nan nan nan nan nan nan nan 212 212 nan nan nan nan nan nan nan nan nan nan nan nan 214 214 215 217 220 225 237 255 272 274 278 278 286 284 270 267 267 276 280 272 269 273 280 289 308 317 311 307 309 318 324 332 338 347 356 1 3 3 3 359 356 351
nan nan nan nan nan nan nan nan nan nan nan nan nan nan nan nan nan nan nan nan nan nan nan nan nan nan nan nan nan nan nan nan nan nan nan nan nan nan nan nan nan nan nan nan 217 220 218 212 215 223 231 241 265 279 282 280 285 292 295 287 280 273 274 263 267 275 291 308 321 305 297 296 298 308 316 322 331 337 343 350 354 356 360 0 0 360
nan nan nan nan nan nan nan nan nan nan nan nan nan nan nan nan nan nan nan nan nan nan nan nan nan nan nan nan nan nan nan nan nan nan nan nan nan nan nan nan nan nan nan 212 217 221 218 211 213 222 230 242 260 280 286 290 294 284 290 281 284 276 271 274 280 283 301 323 313 294 292 291 300 305 316 323 325 328 336 340 338 344 352 357 357 359
nan nan nan nan nan nan nan nan nan nan nan nan nan nan nan nan nan nan nan nan nan nan nan nan nan nan nan nan nan nan nan nan nan nan nan nan nan nan nan 205 208 207 207 211 nan nan 215 211 215 223 232 248 262 271 273 287 292 288 289 287 285 285 277 280 280 293 302 313 289 288 294 298 300 307 315 314 321 322 324 324 326 332 340 345 347 345
nan nan nan nan nan nan nan nan nan nan nan nan nan nan nan nan nan nan nan nan nan nan nan nan nan nan nan nan nan nan nan nan nan nan nan nan nan nan nan nan 209 214 218 217 213 213 212 211 214 221 227 242 256 265 279 282 287 296 298 291 292 278 280 285 289 291 293 287 287 293 295 294 299 306 307 312 313 307 306 312 318 323 327 334 332 331
nan nan nan nan nan nan nan nan nan nan nan nan nan nan nan nan nan nan nan nan nan nan nan nan nan nan nan nan nan nan nan nan nan nan nan nan nan nan nan 218 nan nan 222 220 214 210 212 215 212 214 222 233 247 264 265 270 281 283 277 276 267 269 276 283 287 286 284 281 286 285 285 288 296 304 307 302 297 296 299 304 313 313 310 312 317 330
nan nan nan nan nan nan nan nan nan nan nan nan nan nan nan nan nan nan nan nan nan nan nan nan nan nan nan nan nan nan nan 214 221 nan nan nan nan nan 230 225 225 227 227 227 221 215 215 214 211 208 211 219 231 242 254 265 278 273 271 269 271 267 267 265 261 261 263 268 271 270 274 282 290 294 293 293 294 293 295 299 299 303 303 305 312 320
nan nan nan nan nan nan nan nan nan nan nan nan nan nan nan nan nan nan nan nan nan nan nan nan nan nan nan nan nan nan 221 227 228 224 222 225 228 231 234 231 229 228 228 229 225 218 213 213 213 210 209 218 230 238 252 265 270 272 272 273 272 266 264 262 261 261 260 262 264 269 272 274 273 275 282 288 289 291 292 291 294 298 295 295 299 309
nan nan nan nan nan nan nan nan nan nan nan nan nan nan nan nan nan nan nan nan nan nan nan nan nan nan nan nan nan nan nan 234 232 232 229 226 228 228 231 233 232 230 228 226 225 219 214 211 213 212 214 224 232 234 241 252 263 266 268 274 273 270 270 273 277 277 275 278 277 272 267 266 266 266 275 282 286 290 292 290 290 287 284 290 293 295
nan nan nan nan nan nan nan nan nan nan nan nan nan nan nan nan nan nan nan nan nan nan nan nan nan nan nan nan nan nan 241 nan nan nan 241 235 233 232 232 235 237 236 233 230 225 222 219 217 218 221 223 233 238 235 234 244 256 260 262 267 269 272 276 283 290 285 285 293 287 274 267 264 262 261 266 274 283 288 286 284 279 281 279 283 283 284
nan nan nan nan nan nan nan nan nan nan nan nan nan nan nan nan nan nan nan nan nan nan nan nan nan 231 231 nan nan 242 nan nan nan nan 246 244 239 236 237 236 237 239 239 237 231 224 223 223 226 232 232 236 241 237 236 240 252 258 261 264 269 275 281 287 283 282 288 289 281 276 273 269 265 261 263 269 273 276 281 281 281 279 277 283 285 287
nan nan nan nan nan nan nan nan nan nan nan nan nan nan nan nan nan nan nan nan nan nan nan nan nan 228 229 231 nan nan nan nan nan nan 250 249 242 237 236 236 237 237 239 239 237 232 229 228 232 231 230 231 230 231 237 242 249 258 259 262 267 273 278 273 264 265 272 276 276 275 277 277 272 265 265 268 266 266 272 273 278 285 288 293 295 294
nan nan nan nan nan nan nan nan nan nan nan nan nan nan nan nan nan nan nan nan nan nan nan nan nan 228 229 230 237 nan nan 236 233 241 249 250 247 241 237 234 235 235 236 236 235 234 236 236 236 235 232 230 231 237 242 245 249 253 255 260 264 266 264 263 265 270 274 274 275 278 281 281 280 280 280 282 279 276 277 283 292 296 298 302 302 303
nan nan nan nan nan nan nan nan nan nan nan nan nan nan nan nan nan nan nan nan nan nan nan nan nan 228 230 230 236 237 233 236 241 241 245 247 246 245 241 238 237 237 237 237 236 237 240 241 241 239 236 233 232 236 243 247 249 250 252 256 259 258 256 258 262 266 269 271 276 281 287 291 291 290 291 295 295 296 299 300 301 301 303 302 302 307
nan nan nan nan nan nan nan nan nan nan nan nan nan nan nan nan nan nan nan nan nan nan nan nan nan nan 228 230 234 241 242 239 240 242 244 245 246 245 244 242 240 238 237 238 239 240 243 244 243 240 238 234 233 233 239 248 248 249 251 253 250 249 253 256 257 261 265 269 274 281 289 293 298 295 294 295 299 301 302 299 300 302 300 301 301 302
nan nan nan nan nan nan nan nan nan nan 229 nan nan nan 238 nan nan nan nan nan nan nan nan nan nan nan nan 230 237 246 246 245 239 240 242 243 243 243 244 244 244 243 241 239 240 243 245 246 243 242 239 237 235 236 236 242 247 248 250 247 244 244 245 253 258 262 268 272 276 280 286 289 292 293 292 292 290 293 294 295 296 296 295 300 298 298
nan nan nan nan nan nan nan 225 225 nan 222 223 nan 231 nan nan nan nan nan nan nan nan nan nan nan nan 224 227 239 245 248 244 245 242 241 241 242 242 243 244 245 245 244 243 243 245 247 247 245 241 238 237 236 236 238 241 245 248 247 244 244 244 244 244 251 261 267 271 274 276 277 278 279 282 284 284 286 287 288 289 287 287 291 293 294 297
nan nan nan nan nan nan nan nan nan nan nan nan 225 nan nan nan nan nan nan nan nan nan nan 231 226 224 225 225 236 243 245 247 248 247 245 244 243 242 243 243 243 243 244 245 244 244 247 249 247 244 241 238 236 237 238 239 241 243 243 243 244 245 246 249 251 256 261 266 270 273 274 275 276 275 276 279 280 283 282 282 282 283 282 287 290 292
nan nan nan nan nan nan nan 226 229 229 229 227 228 nan nan nan nan nan nan nan nan nan 238 235 231 227 226 226 234 243 246 247 249 248 247 245 243 243 243 243 242 242 242 242 241 242 244 247 247 245 243 241 238 239 239 240 240 241 242 242 244 246 248 251 253 256 259 261 263 265 269 271 272 271 272 275 275 276 277 278 280 280 280 283 286 287
nan nan nan nan nan nan nan nan nan 221 221 227 230 nan nan nan nan nan nan nan nan 240 240 239 235 231 227 228 230 239 242 244 247 249 248 247 246 246 245 244 243 242 242 241 241 240 242 244 245 245 244 244 243 242 242 242 243 243 245 246 247 248 250 252 254 256 258 259 261 263 265 266 264 263 265 269 273 275 277 280 282 283 285 287 288 288
nan nan nan nan nan nan nan nan nan nan nan nan nan nan nan nan nan nan nan nan nan 240 240 242 239 233 229 226 228 235 238 238 242 246 249 249 248 248 247 246 244 243 243 242 241 242 242 243 244 245 246 247 247 247 246 245 245 245 245 246 247 249 252 254 256 257 258 258 259 258 257 258 260 263 266 269 271 273 275 278 280 282 283 284 283 284
nan nan nan nan nan nan nan nan nan nan nan nan nan nan nan nan nan nan nan nan nan 240 240 244 244 238 230 224 225 231 235 nan 236 239 243 245 246 247 248 248 246 246 246 245 246 247 247 245 246 247 248 249 249 249 250 250 249 247 246 247 248 250 252 255 256 256 257 257 258 259 260 261 263 263 264 264 263 262 262 261 261 264 267 269 270 271
nan nan nan nan nan nan nan nan nan nan nan nan nan nan nan nan nan nan nan nan 244 242 241 244 246 244 238 230 nan 229 232 232 233 238 241 243 243 242 243 244 246 246 246 248 249 249 248 247 248 249 249 248 247 248 249 250 250 250 249 249 250 252 254 256 258 258 258 258 259 259 261 263 265 267 268 268 268 268 267 266 266 265 265 269 268 267